Content
SEND FEEDBACK

Daily
Averages
Monthly
Summary
United Kingdom

KINGS LYNN, ENGLAND


Home > Europe > United Kingdom > England
Elevation: 255 feet     Latitude: 52 47N     Longitude: 000 44E

WEATHER
 
SELECT A DAY
Number of Records: 159,042;   Date Range: 8/10/96 - 7/31/14
 
SHARE

PRINT THIS DATA

[ ← Previous Day ]
WEATHER ALMANAC - OCTOBER 5, 2013
[ Next Day → ]
[ °C ]   °F
Weather ElementAverageHighLow
Temperature59.6 °F64.4 °F (12:53 pm)45 °F (11:58 pm)
Dewpoint54 °F57 °F (9:58 am)43.5 °F (11:58 pm)
Humidity82.5 %99 % (4:58 am)67 % (3:58 pm)
Barometer30.11 in30.24 in (9:58 pm)29.95 in (1:58 am)
Wind Speed4 mph8.1 mph (1:58 am)
Weather ElementAverage
Visibility6.2 mi
Wind DirectionWSW (245.7 °)

Weather ElementTotal
Precipitation---
Heating Degree Days10.3 (Base 65)
Growing Degree Days4.7 (Base 50)
Averaged from 37 records on October 5, 2013
WEATHER CONDITIONS BREAKOUT
WIND DIRECTION BREAKOUT
WEATHER BY HOUR - OCTOBER 5, 2013
[ °C ]   °F
Local TimeTemperatureDewpointHumidityBarometerVisibilityWind DirectionWind SpeedGust SpeedPrecipitationEventsConditions
1:58 AM57.4 °F55.4 °F93 %29.95 in6.2 miSW (220°)8.1 mphOvercast
2:58 AM58.1 °F55.6 °F91 %29.96 in6.2 miWSW (240°)3.5 mphOvercast
3:58 AM56.7 °F55.6 °F96 %29.96 in6.2 miWSW (250°)4.6 mphOvercast
4:58 AM56.3 °F55.9 °F99 %29.99 in6.2 miSW (220°)4.6 mphOvercast
5:58 AM56.8 °F55.9 °F97 %30.00 in6.2 miSW (230°)4.6 mphOvercast
6:58 AM56.8 °F55.9 °F97 %30.02 in6.2 miWest (270°)2.3 mphMostly Cloudy
7:58 AM57.2 °F56.3 °F97 %30.05 in6.2 miSSW (200°)3.5 mphOvercast
8:58 AM58.1 °F56.3 °F94 %30.07 in6.2 miWSW (240°)5.8 mphOvercast
9:58 AM59.2 °F57.0 °F93 %30.09 in6.2 miWSW (250°)6.9 mphOvercast
10:58 AM61.2 °F56.7 °F85 %30.10 in6.2 miWest (280°)5.8 mphMostly Cloudy
11:58 AM62.2 °F55.9 °F80 %30.12 in6.2 miNW (320°)4.6 mphOvercast
12:27 PM62.6 °F55.4 °F77 %30.11 in6.2 miWSW (250°)4.6 mphMostly Cloudy
12:29 PM62.6 °F55.4 °F77 %30.11 in6.2 miWest (260°)4.6 mphMostly Cloudy
12:32 PM62.6 °F55.4 °F77 %30.11 in6.2 miWest (270°)3.5 mphMostly Cloudy
12:38 PM62.6 °F55.4 °F77 %30.11 in6.2 miWNW (290°)4.6 mphMostly Cloudy
12:41 PM62.6 °F55.4 °F77 %30.11 in6.2 miWest (270°)3.5 mphMostly Cloudy
12:43 PM62.6 °F55.4 °F77 %30.12 in6.2 miWest (280°)3.5 mphMostly Cloudy
12:47 PM62.6 °F55.4 °F77 %30.11 in6.2 miWest (270°)4.6 mphMostly Cloudy
12:51 PM62.6 °F55.4 °F77 %30.11 in6.2 miWNW (290°)2.3 mphOvercast
12:53 PM64.4 °F55.4 °F73 %30.11 in6.2 miVariable3.5 mphMostly Cloudy
12:58 PM63.7 °F54.9 °F73 %30.12 in6.2 miNNW (330°)4.6 mphMostly Cloudy
12:59 PM64.4 °F53.6 °F68 %30.12 in6.2 miNNW (330°)4.6 mphMostly Cloudy
1:12 PM62.6 °F55.4 °F77 %30.12 in6.2 miNNW (340°)4.6 mphMostly Cloudy
1:18 PM62.6 °F55.4 °F77 %30.12 in6.2 miNW (310°)2.3 mphOvercast
1:21 PM62.6 °F55.4 °F77 %30.12 in6.2 miNNW (330°)3.5 mphOvercast
1:33 PM62.6 °F55.4 °F77 %30.12 in6.2 miNNW (330°)2.3 mphMostly Cloudy
1:58 PM63.9 °F55.0 °F73 %30.14 in6.2 miWNW (300°)5.8 mphMostly Cloudy
2:58 PM62.6 °F55.9 °F79 %30.15 in6.2 miWest (280°)6.9 mphOvercast
3:58 PM63.9 °F52.7 °F67 %30.16 in6.2 miNW (310°)6.9 mphMostly Cloudy
4:58 PM63.3 °F52.5 °F68 %30.17 in6.2 miWNW (290°)5.8 mphScattered Clouds
5:58 PM62.2 °F51.8 °F69 %30.18 in6.2 miWNW (290°)5.8 mphMostly Cloudy
6:58 PM57.7 °F51.8 °F81 %30.20 in6.2 miWNW (290°)2.3 mphOvercast
7:58 PM54.3 °F49.5 °F84 %30.21 in6.2 miCalmClear
8:58 PM51.3 °F48.4 °F90 %30.22 in6.2 miSSW (200°)2.3 mphClear
9:58 PM48.6 °F46.9 °F94 %30.24 in6.2 miEast (100°)1.2 mphClear
10:58 PM46.9 °F45.3 °F94 %30.24 in6.2 miCalmClear
11:58 PM45.0 °F43.5 °F95 %30.24 in6.2 miSSE (160°)1.2 mphClear
Hourly data recorded from EGUL, located miles away from Kings Lynn, England







STORIES FROM OUR PARTNERS